Change the Weather History Date:

Saturday, January 11, 2014

  Actual Average Record
Temperature  
Mean Temperature 72 °F -  
Max Temperature 81 °F 80 °F 85 °F (2013)
Min Temperature 62 °F 63 °F 42 °F (2009)
Cooling Degree Days 6    
Growing Degree Days 22 (Base 50)    
Moisture  
Dew Point 58 °F    
Average Humidity 58    
Maximum Humidity 73    
Minimum Humidity 26    
Precipitation  
Precipitation 0.00 in 0.01 in - ()
Sea Level Pressure  
Sea Level Pressure 29.97 in    
Wind  
Wind Speed 9 mph ()    
Max Wind Speed 18 mph    
Max Gust Speed 23 mph    
Visibility 8.2 miles    
Events      
Averages and records for this station are not official NWS values.
T = Trace of Precipitation, MM = Missing Value Source: Averaged Metar Reports

Daily Weather History Graph

Daily Weather History Graph

Search for Another Location

Airport or City:

Trip Planner

Search our weather history database for the weather conditions in past years. The results will help you decide how hot, cold, wet, or windy it might be!

Date:

Astronomy

Jan. 11, 2014 Rise Set
Actual Time 5:57 AM CST 5:32 PM CST
Civil Twilight 5:34 AM CST 5:55 PM CST
Nautical Twilight 5:08 AM CST 6:21 PM CST
Astronomical Twilight 4:42 AM CST 6:47 PM CST
Moon 2:08 PM CST (1/11) 2:10 AM CST (1/11)
Length of Visible Light 12h 20m
Length of Day
11h 35m
Waxing Gibbous, 83% of the Moon is Illuminated
Jan 11
Waxing Gibbous
Jan 15
Full
Jan 23
Last Quarter
Jan 30
New
Feb 6
First Quarter

Hourly Weather History & Observations

Time (CST) Temp. Heat Index Dew Point Humidity Pressure Visibility Wind Dir Wind Speed Gust Speed Precip Events Conditions
12:00 AM 85 °F - 56 °F 26% 29.85 in 12 mi East 11.5 mph - -  
12:00 AM 68.0 °F - 55.4 °F 64% 30.00 in - East 11.5 mph - N/A   Clear
1:00 AM 68.0 °F - 55.4 °F 64% 29.99 in - ESE 12.7 mph - N/A   Clear
2:00 AM 66.2 °F - 55.4 °F 68% 29.97 in - East 8.1 mph - N/A   Clear
3:00 AM 67 °F - 57 °F 61% 29.81 in 12 mi East 5.8 mph - -  
3:00 AM 66.2 °F - 57.2 °F 73% 29.96 in - East 5.8 mph - N/A   Clear
4:00 AM 66.2 °F - 55.4 °F 68% 29.98 in - ENE 5.8 mph - N/A   Clear
5:00 AM 64.4 °F - 55.4 °F 73% 29.99 in - NE 5.8 mph - N/A   Clear
6:00 AM 64 °F - 55 °F 65% 29.89 in 12 mi ENE 8.1 mph - -   Scattered Clouds
6:00 AM 64.4 °F - 55.4 °F 73% 30.01 in 6.2 mi ENE 8.1 mph - N/A   Partly Cloudy
7:00 AM 69.8 °F - 57.2 °F 64% 30.03 in 6.2 mi East 18.4 mph - N/A   Partly Cloudy
8:00 AM 71.6 °F - 59.0 °F 64% 30.05 in 6.2 mi East 11.5 mph 23.0 mph N/A   Partly Cloudy
9:00 AM 76 °F - 59 °F 45% 29.92 in 12 mi East 10.4 mph - -   Scattered Clouds
9:00 AM 75.2 °F - 59.0 °F 57% 30.06 in 6.2 mi East 10.4 mph 21.9 mph N/A   Partly Cloudy
10:00 AM 78.8 °F - 59.0 °F 51% 30.05 in 6.2 mi East 18.4 mph - N/A   Partly Cloudy
11:00 AM 80.6 °F 80.8 °F 57.2 °F 45% 30.03 in 6.2 mi East 11.5 mph - N/A   Partly Cloudy
12:00 PM 79 °F - 58 °F 38% 29.86 in 12 mi ESE 11.5 mph - -   Scattered Clouds
12:00 PM 78.8 °F - 57.2 °F 47% 30.01 in 6.2 mi ESE 11.5 mph 23.0 mph N/A   Partly Cloudy
1:00 PM 80.6 °F 80.8 °F 57.2 °F 45% 29.97 in 6.2 mi East 8.1 mph 19.6 mph N/A   Partly Cloudy
2:00 PM 80.6 °F 81.1 °F 59.0 °F 48% 29.95 in 6.2 mi East 9.2 mph 20.7 mph N/A   Partly Cloudy
3:00 PM 80 °F - 58 °F 37% 29.79 in 12 mi East 11.5 mph - -   Scattered Clouds
3:00 PM 80.6 °F 81.1 °F 59.0 °F 48% 29.94 in 6.2 mi East 11.5 mph - N/A   Partly Cloudy
4:00 PM 77.0 °F - 57.2 °F 50% 29.94 in 6.2 mi ESE 11.5 mph - N/A   Scattered Clouds
5:00 PM 75.2 °F - 59.0 °F 57% 29.96 in 6.2 mi ESE 8.1 mph - N/A   Scattered Clouds
6:00 PM 72 °F - 58 °F 53% 29.86 in 12 mi ESE 10.4 mph - -   Scattered Clouds
6:00 PM 71.6 °F - 59.0 °F 64% 29.98 in 6.2 mi ESE 10.4 mph - N/A   Partly Cloudy
7:00 PM 69.8 °F - 59.0 °F 68% 30.01 in 6.2 mi ESE 9.2 mph - N/A   Partly Cloudy
8:00 PM 69.8 °F - 57.2 °F 64% 30.03 in 6.2 mi East 6.9 mph - N/A   Partly Cloudy
9:00 PM 69 °F - 58 °F 60% 29.91 in 12 mi East 9.2 mph - -  
9:00 PM 69.8 °F - 59.0 °F 68% 30.05 in - East 9.2 mph - N/A   Clear
10:00 PM 68.0 °F - 59.0 °F 73% 30.05 in - East 9.2 mph - N/A   Clear
11:00 PM 68.0 °F - 59.0 °F 73% 30.05 in - East 6.9 mph - N/A   Clear